Location: ECC Obs
(38.4314°N, 90.9815°W)
Time: 12:44:40
(UTC-06:00)

N. Korean satellite - Visible Passes

Search period start: 17 February 2020 00:00
Search period end: 27 February 2020 00:00
Orbit: 456 x 506 km, 97.2° (Epoch: 17 February)

Date Brightness Start Highest point End Pass type
(mag) Time Alt. Az. Time Alt. Az. Time Alt. Az.
17 Feb 7.4 05:36:47 10° NNE 05:40:28 56° E 05:44:06 10° S visible
18 Feb 9.0 05:11:42 10° NE 05:14:51 26° E 05:17:58 10° SSE visible
19 Feb 10.1 04:47:30 10° ENE 04:49:09 13° E 04:50:48 10° ESE visible
19 Feb 7.2 06:19:13 10° N 06:22:40 37° WNW 06:26:05 10° SW visible
20 Feb 6.6 05:53:29 10° N 05:57:13 83° WNW 06:00:54 10° SSW visible
21 Feb 8.0 05:28:06 10° NNE 05:31:40 42° E 05:35:11 10° S visible
22 Feb 9.5 05:03:13 10° NE 05:06:02 20° E 05:08:48 10° SE visible
23 Feb 6.9 06:10:20 10° N 06:13:56 48° WNW 06:17:28 10° SSW visible
24 Feb 6.8 05:44:43 10° NNE 05:48:26 75° E 05:52:06 10° S visible
25 Feb 8.6 05:19:28 10° NNE 05:22:51 32° E 05:26:10 10° SSE visible
26 Feb 9.8 04:54:51 10° NE 04:57:10 16° E 04:59:28 10° SE visible
